Location: Buffign�court
(47.8126°N, 6.0176°E)
Time: 14:44:48
(UTC+00:00)

CARTOSAT-1 - Pass Details

Date: 16 June 2021
Orbit: 616 x 619 km, 97.8° (Epoch: 01 August)

Event Time Altitude Azimuth Distance (km) Brightness Sun altitude
Exits shadow 21:11:00 12° 180° (S) 1,874 5.5 -11.6°
Maximum altitude 21:14:59 58° 259° (W) 722 4.0 -12.0°
Drops below altitude 10° 21:19:16 10° 340° (NNW) 1,995 7.6 -12.4°
Sets 21:21:30 0° 344° (NNW) 2,906 8.7 -12.6°
